Hauptseite
METAR-TAF:

METAR-TAF

Flughäfen :

Arnheim, Niederlande

Militärflugplatz Deelen

Breite: 52-04N, Länge: 005-53E, Höhe: 48 m

Beobachtung

Neuester Wetterbericht von vor 35 Minuten, um 23:25 UTC
Wind 9 kt aus Nordost, variierte zwischen Nord und Ost
Temperatur 5°C
Luftfeuchtigkeit 75%
Luftdruck 1032 hPa
Sichtweite 10 km oder mehr
Leicht bewölkt in der Höhe von 11000 ft

METAR: EHDL 242325Z AUTO 04009KT 360V080 9999 FEW110 05/01 Q1032 BLU

Zeit: 01:00 (00:00 UTC)


TAF: fehlend

Wetterbeobachtungen und Prognosen von mehr als 4000 Flughäfen (METAR und TAF Bericht).

Die verfügbaren Stationen werden durch gelbe und rote Markierungen auf der Karte dargestellt.

Führen Sie die Maus auf sie, um den Namen der Station zu sehen.

Darauf klicken, um die Beobachtung von Wetterbeobachtungen und Prognosen zu sehen.

Um die Karte zu ändern : klicken Sie auf den grünen Tasten mit einem schwarzen Kreuz Zum Vergrößern, auf den grünen Button mit einem Gedankenstrich zu verkleinern, oder auf die grünen Pfeile für benachbarte Karten.


METAR-TAF: